パンスターズ彗星

P/2019 T6 ( PanSTARRS )

English version
Home page
Updated on January 23, 2020

---------------------------------------------------------------------

・ プロフィール

発見日 2019年10月8日
発見光度 19.6等
発見者 Pan-STARRS 2 telescope (Haleakala)

・ 写真集

・ 軌道要素

Epoch 2019 Nov. 13.0 TT = JDT 2458800.5
T 2019 Nov. 7.75940 TT                                  Williams
q   2.0519271            (2000.0)            P               Q
n   0.07785908     Peri.  328.90975     +0.73774926     -0.60292292
a   5.4316263      Node    71.31087     +0.66630582     +0.57807337
e   0.6222260      Incl.   18.69703     +0.10845548     +0.54983192
P  12.7
From 167 observations 2019 Oct. 8-Dec. 29, mean residual 0".6.

・ 光度変化

        m1 = 15.0 + 5 logΔ + 10.0 log r

---------------------------------------------------------------------

軌道要素はM.P.E.C. 2020-A105に掲載されたものです。
光度グラフはComet for Windowsで作成したものです。

---------------------------------------------------------------------

Copyright(C) Seiichi Yoshida (comet@aerith.net). All rights reserved.